Weather reports worldwide

Advertisment
Coningsby, United Kingdom (3391): temperature & dewpoint: 10.11.2018 10:00:00 - 16.11.2018 10:00:00 (GMT)Coningsby, United Kingdom (3391): temperature -20cm & temperature -100cm: 10.11.2018 10:00:00 - 16.11.2018 10:00:00 (GMT)Coningsby, United Kingdom (3391): wind speed & gusts: 10.11.2018 10:00:00 - 16.11.2018 10:00:00 (GMT)Coningsby, United Kingdom (3391): wind direction: 10.11.2018 10:00:00 - 16.11.2018 10:00:00 (GMT)Coningsby, United Kingdom (3391): reduced air pressure: 10.11.2018 10:00:00 - 16.11.2018 10:00:00 (GMT)Coningsby, United Kingdom (3391): visibility: 10.11.2018 10:00:00 - 16.11.2018 10:00:00 (GMT)Coningsby, United Kingdom (3391): precipitation: 10.11.2018 10:00:00 - 16.11.2018 10:00:00 (GMT)
Date & Time tt [°C] td [°C] tt -20cm [°C] tt -100cm [°C] ff [km/h] ff [kn] fx [km/h] fx [kn] dd ppp [hPa] vv [km] rr [mm]
16.11.2018 10:00:00 10,0 10,0 - - 9 5 - - SSE 1026,3 3,0 0,0
16.11.2018 09:00:00 9,9 9,9 9,0 11,2 8 4 - - SSE 1026,2 1,3 0,0
16.11.2018 08:00:00 9,7 9,7 - - 8 4 - - S 1025,8 0,8 0,0
16.11.2018 07:00:00 9,7 9,7 - - 8 4 - - SE 1025,0 0,2 0,0
16.11.2018 06:00:00 9,7 9,7 - - 9 5 - - SE 1024,1 0,2 0,0
16.11.2018 05:00:00 9,9 9,8 - - 8 4 - - SE 1023,6 0,2 0,0
16.11.2018 04:00:00 10,2 10,1 - - 11 6 - - SE 1023,4 0,4 0,0
16.11.2018 03:00:00 10,7 10,7 - - 9 5 - - SE 1023,1 2,2 0,0
16.11.2018 02:00:00 10,8 10,7 - - 9 5 - - S 1023,2 1,4 0,2
16.11.2018 01:00:00 10,9 10,9 - - 9 5 - - SSE 1022,9 0,8 0,0
16.11.2018 00:00:00 11,3 11,2 - - 11 6 - - S 1022,3 2,0 0,0
15.11.2018 23:00:00 11,6 11,2 - - 11 6 - - S 1022,1 2,8 0,0
15.11.2018 22:00:00 12,0 11,4 - - 15 8 - - S 1021,2 3,5 0,0
15.11.2018 21:00:00 12,4 11,5 - - 16 9 - - S 1020,8 4,0 0,0
15.11.2018 20:00:00 12,5 11,6 - - 13 7 - - SSE 1020,2 7 0,0
15.11.2018 19:00:00 12,7 11,6 - - 13 7 - - SSE 1020,2 10 0,0
15.11.2018 18:00:00 11,9 10,8 - - 11 6 - - S 1020,2 10 0,0
15.11.2018 17:00:00 9,1 8,2 - - 9 5 - - SSE 1019,7 10 0,0
15.11.2018 16:00:00 11,3 9,5 - - 11 6 - - S 1019,6 10 0,0
15.11.2018 15:00:00 13,3 10,4 - - 13 7 - - S 1019,6 10 0,0
15.11.2018 14:00:00 13,5 10,8 - - 13 7 - - S 1019,6 10 0,0
15.11.2018 13:00:00 13,0 10,7 - - 18 10 - - S 1019,9 10 0,0
15.11.2018 12:00:00 12,8 10,2 - - 18 10 - - S 1020,1 10 0,0
15.11.2018 11:00:00 11,6 10,6 - - 15 8 - - S 1020,5 10 0,0
15.11.2018 10:00:00 10,8 10,8 - - 8 4 - - S 1020,7 5 0,0
15.11.2018 09:00:00 10,1 10,1 8,7 11,4 8 4 - - SSE 1020,9 1,0 0,0
15.11.2018 08:00:00 9,8 9,7 - - 5 3 - - SE 1020,7 0,4 0,0
15.11.2018 07:00:00 9,6 9,6 - - 8 4 - - SE 1020,4 0,2 0,0
15.11.2018 06:00:00 9,2 9,2 - - 9 5 - - SE 1020,2 0,6 0,2
15.11.2018 05:00:00 8,9 8,8 - - 5 3 - - SE 1020,2 0,9 0,0
15.11.2018 04:00:00 8,7 8,6 - - 5 3 - - SSE 1020,2 2,0 0,0
15.11.2018 03:00:00 8,7 8,3 - - 5 3 - - S 1020,4 3,0 0,0
15.11.2018 02:00:00 8,1 7,7 - - 5 3 - - SSE 1020,3 6 0,0
15.11.2018 01:00:00 7,6 7,3 - - 5 3 - - S 1020,3 9 0,0
15.11.2018 00:00:00 7,2 6,9 - - 9 5 - - S 1020,5 10 0,0
14.11.2018 23:00:00 6,6 6,2 - - 11 6 - - SSE 1020,4 10 0,0
14.11.2018 22:00:00 6,6 5,8 - - 9 5 - - SSE 1020,4 10 0,0
14.11.2018 21:00:00 7,6 6,3 - - 16 9 - - S 1020,2 10 0,0
14.11.2018 20:00:00 8,2 6,6 - - 15 8 - - S 1020,2 10 0,0
14.11.2018 19:00:00 8,5 6,6 - - 11 6 - - SSE 1020,2 10 0,0
14.11.2018 18:00:00 9,5 7,4 - - 13 7 - - S 1019,8 10 0,0
14.11.2018 17:00:00 9,9 7,4 - - 8 4 - - SSE 1019,8 10 0,0
14.11.2018 16:00:00 11,6 8,5 - - 15 8 - - S 1019,7 10 0,0
14.11.2018 15:00:00 13,0 8,6 - - 16 9 - - SSW 1019,4 10 0,0
14.11.2018 14:00:00 13,9 8,4 - - 28 15 50 27 SSW 1019,4 40 0,0
14.11.2018 13:00:00 13,5 8,9 - - 29 16 48 26 SSW 1019,4 10 0,0
14.11.2018 12:00:00 13,8 9,0 - - 35 19 46 25 SSW 1019,5 40 0,0
14.11.2018 11:00:00 12,3 9,0 - - 28 15 - - SSW 1019,9 10 0,0
14.11.2018 10:00:00 12,0 9,4 - - 21 11 - - SSW 1020,0 10 0,0
14.11.2018 09:00:00 11,1 8,9 8,5 11,4 22 12 - - S 1019,8 25 0,0
14.11.2018 08:00:00 10,4 8,8 - - 22 12 - - S 1019,6 10 0,0
14.11.2018 07:00:00 9,9 8,6 - - 21 11 - - S 1019,3 10 0,0
14.11.2018 06:00:00 9,8 8,5 - - 28 15 - - S 1019,3 25 0,0
14.11.2018 05:00:00 9,4 8,4 - - 22 12 - - S 1019,4 10 0,0
14.11.2018 04:00:00 8,4 7,8 - - 15 8 - - S 1019,8 10 0,0
14.11.2018 03:00:00 8,4 7,7 - - 13 7 - - SSE 1020,5 10 0,0
14.11.2018 02:00:00 8,3 7,6 - - 16 9 - - SSE 1021,3 30 0,0
14.11.2018 01:00:00 8,0 7,1 - - 13 7 - - SSE 1021,8 10 0,0
14.11.2018 00:00:00 8,9 7,4 - - 22 12 - - SSW 1021,9 10 0,0
13.11.2018 23:00:00 9,0 7,4 - - 18 10 - - S 1022,2 30 0,0
13.11.2018 22:00:00 8,6 6,8 - - 21 11 - - S 1022,3 30 0,0
13.11.2018 21:00:00 8,3 7,1 - - 13 7 - - S 1022,6 10 0,0
13.11.2018 20:00:00 7,8 6,5 - - 13 7 - - SSW 1022,7 10 0,0
13.11.2018 19:00:00 7,5 6,1 - - 13 7 - - SSW 1022,2 10 0,0
13.11.2018 18:00:00 8,0 5,6 - - 15 8 - - SSW 1022,0 10 0,0
13.11.2018 17:00:00 8,3 5,9 - - 15 8 - - SSW 1021,6 10 0,0
13.11.2018 16:00:00 9,9 5,9 - - 15 8 - - SW 1020,8 10 0,0
13.11.2018 15:00:00 11,8 6,9 - - 18 10 - - WSW 1020,2 10 0,0
13.11.2018 14:00:00 11,5 6,5 - - 22 12 48 26 WSW 1019,6 10 0,0
13.11.2018 13:00:00 12,4 7,2 - - 31 17 46 25 WSW 1018,8 10 0,0
13.11.2018 12:00:00 12,0 7,2 - - 28 15 48 26 WSW 1018,3 10 0,0
13.11.2018 11:00:00 11,3 7,3 - - 26 14 - - WSW 1017,8 10 0,0
13.11.2018 10:00:00 10,1 7,2 - - 21 11 - - SW 1016,7 10 0,0
13.11.2018 09:00:00 8,5 6,3 8,7 11,5 21 11 - - SW 1015,8 10 0,0
13.11.2018 08:00:00 6,3 5,0 - - 16 9 - - SSW 1014,6 10 0,0
13.11.2018 07:00:00 6,9 5,2 - - 21 11 - - SW 1013,4 10 0,0
13.11.2018 06:00:00 7,2 5,5 - - 18 10 - - SW 1012,1 10 0,0
13.11.2018 05:00:00 7,0 5,3 - - 18 10 - - SSW 1011,3 10 0,0
13.11.2018 04:00:00 7,2 5,1 - - 18 10 - - SSW 1010,3 10 0,0
13.11.2018 03:00:00 7,2 5,3 - - 21 11 - - SSW 1009,8 10 0,0
13.11.2018 02:00:00 7,6 6,1 - - 18 10 - - S 1009,6 10 0,0
13.11.2018 01:00:00 7,7 6,5 - - 22 12 - - S 1009,1 10 0,0
13.11.2018 00:00:00 8,8 7,0 - - 22 12 - - S 1009,0 10 0,0
12.11.2018 23:00:00 8,7 7,0 - - 18 10 - - S 1008,7 10 0,0
12.11.2018 22:00:00 8,6 7,1 - - 18 10 - - S 1008,7 10 0,0
12.11.2018 21:00:00 8,6 6,7 - - 18 10 - - S 1008,5 10 0,0
12.11.2018 20:00:00 8,6 7,0 - - 16 9 - - S 1008,6 10 0,0
12.11.2018 19:00:00 9,2 6,8 - - 13 7 - - S 1008,7 10 0,0
12.11.2018 18:00:00 10,2 7,4 - - 22 12 - - S 1008,6 10 0,0
12.11.2018 17:00:00 8,9 6,9 - - 11 6 50 27 S 1008,2 10 0,0
12.11.2018 16:00:00 11,3 8,6 - - 24 13 48 26 S 1007,8 6 0,6
12.11.2018 15:00:00 12,8 8,4 - - 22 12 - - S 1007,1 10 0,0
12.11.2018 14:00:00 13,6 8,8 - - 22 12 - - SSW 1007,0 10 0,0
12.11.2018 13:00:00 13,7 9,3 - - 26 14 - - SSW 1006,7 10 0,0
12.11.2018 12:00:00 12,8 9,9 - - 28 15 - - SSW 1007,2 10 0,0
12.11.2018 11:00:00 11,3 9,4 - - 21 11 - - SSW 1007,3 10 0,0
12.11.2018 10:00:00 9,9 8,7 - - 21 11 - - S 1007,2 10 0,0
12.11.2018 09:00:00 8,2 7,5 8,7 11,7 13 7 - - S 1007,2 10 0,0
12.11.2018 08:00:00 6,9 6,3 - - 11 6 - - S 1006,7 10 0,0
12.11.2018 07:00:00 7,4 6,6 - - 13 7 - - S 1006,1 10 0,0
12.11.2018 06:00:00 7,5 6,7 - - 11 6 - - S 1005,7 25 0,0
12.11.2018 05:00:00 7,7 6,9 - - 13 7 - - S 1005,6 10 0,0
12.11.2018 04:00:00 7,6 6,8 - - 11 6 - - S 1005,4 10 0,0
12.11.2018 03:00:00 7,4 6,7 - - 15 8 - - S 1005,4 10 0,0
12.11.2018 02:00:00 7,0 6,2 - - 16 9 - - S 1005,2 10 0,0
12.11.2018 01:00:00 6,2 5,5 - - 15 8 - - S 1005,1 10 0,0
12.11.2018 00:00:00 6,8 6,0 - - 13 7 - - S 1004,8 10 0,0
11.11.2018 23:00:00 6,1 5,3 - - 11 6 - - S 1004,2 10 0,0
11.11.2018 22:00:00 6,5 5,5 - - 13 7 - - S 1003,7 10 0,0
11.11.2018 21:00:00 6,8 5,4 - - 16 9 - - S 1003,3 10 0,0
11.11.2018 20:00:00 6,7 5,3 - - 13 7 - - S 1002,7 10 0,0
11.11.2018 19:00:00 6,9 4,8 - - 13 7 - - S 1001,9 10 0,0
11.11.2018 18:00:00 8,1 6,0 - - 16 9 - - S 1001,4 10 0,0
11.11.2018 17:00:00 8,4 6,0 - - 9 5 - - S 1000,1 10 0,0
11.11.2018 16:00:00 10,4 6,4 - - 18 10 - - SW 999,2 10 0,0
11.11.2018 15:00:00 11,9 6,8 - - 26 14 - - SW 998,0 10 0,0
11.11.2018 14:00:00 12,2 6,4 - - 29 16 - - SW 997,1 10 0,0
11.11.2018 13:00:00 11,8 7,2 - - 34 18 48 26 SW 996,1 10 0,0
11.11.2018 12:00:00 11,2 7,9 - - 31 17 48 26 SW 995,1 10 0,0
11.11.2018 11:00:00 10,7 8,3 - - 26 14 - - S 994,3 10 0,0
11.11.2018 10:00:00 10,1 8,0 - - 21 11 - - S 993,7 10 0,0
11.11.2018 09:00:00 8,4 8,1 9,0 11,7 16 9 - - SSE 993,8 10 0,2
11.11.2018 08:00:00 6,8 6,6 - - 11 6 - - SSE 993,7 8 0,0
11.11.2018 07:00:00 6,9 6,8 - - 13 7 - - S 993,5 7 0,0
11.11.2018 06:00:00 6,9 6,7 - - 13 7 - - S 993,3 9 0,0
11.11.2018 05:00:00 7,0 6,5 - - 8 4 - - S 993,2 8 0,0
11.11.2018 04:00:00 8,6 8,1 - - 18 10 - - S 993,2 10 0,0
11.11.2018 03:00:00 7,6 7,2 - - 9 5 - - S 993,3 7 0,0
11.11.2018 02:00:00 8,2 7,8 - - 9 5 - - S 993,4 10 0,0
11.11.2018 01:00:00 8,5 8,0 - - 11 6 - - S 993,3 10 0,0
11.11.2018 00:00:00 8,5 7,9 - - 15 8 - - S 993,4 10 0,0
10.11.2018 23:00:00 8,5 7,7 - - 15 8 - - S 993,4 10 0,0
10.11.2018 22:00:00 8,2 7,7 - - 11 6 - - SSE 993,5 10 0,0
10.11.2018 21:00:00 8,0 7,3 - - 13 7 - - SSE 993,7 25 0,0
10.11.2018 20:00:00 8,2 7,4 - - 13 7 - - S 993,5 10 0,0
10.11.2018 19:00:00 9,3 8,0 - - 16 9 - - S 993,4 10 0,0
10.11.2018 18:00:00 9,2 8,0 - - 15 8 - - SSE 993,3 40 0,0
10.11.2018 17:00:00 9,0 8,2 - - 13 7 - - SE 993,2 10 0,0
10.11.2018 16:00:00 9,3 8,2 - - 13 7 - - SSE 992,9 10 2,0
10.11.2018 15:00:00 11,2 8,1 - - 29 16 55 30 S 993,0 10 0,4
10.11.2018 14:00:00 13,3 9,5 - - 21 11 - - SSE 992,8 10 0,0
10.11.2018 13:00:00 13,3 9,4 - - 21 11 - - S 992,9 10 0,0
10.11.2018 12:00:00 12,3 9,2 - - 16 9 - - S 993,2 10 0,0
10.11.2018 11:00:00 11,2 8,9 - - 22 12 - - S 993,7 10 0,0
10.11.2018 10:00:00 10,1 8,6 - - 24 13 - - SSW 993,7 10 0,0

tt = temperature
td = dewpoint
tt -20cm = temperature -20cm
tt -100cm = temperature -100cm
ff = wind speed
fx = gusts
dd = wind direction
ppp = reduced air pressure
vv = visibility
rr = precipitation

Next stations